sat.trackr.live / text

‹ back to catalog

STARLINK-35381

NORAD 65826 · 2025-221D

PAYLOAD ACTIVE UNKNOWN

§ Identity

Operator
Country
US
Launch date
2025-09-29
Launch site
AFWTR
Launch vehicle
Mass (kg)
RCS (m²)

Purposes: comms

External: N2YO · Heavens-Above · Gunter

§ Orbital elements

Epoch: 2026-05-25T05:06:52.621056Z

Period
93.87 min
Inclination
53.1598°
Eccentricity
0.0000984
Mean motion
15.33988764 rev/d
Perigee alt
463.3 km
Apogee alt
464.6 km
Semi-major
6,842.1 km
B*
8.3361e-3
RAAN
92.6050°
Arg perigee
85.9444°
Mean anomaly
274.1671°
Rev number
3,780

§ Raw data

STARLINK-353811 65826U 25221D   26145.21310904  .00288570  00000+0  83361-2 0  99992 65826  53.1598  92.6050 0000984  85.9444 274.1671 15.33988764 37807

JSON: /api/v1/satellites/65826 · /tle

For live sub-satellite position, see the globe view (requires WebGL).

§ Visibility from observer

Set your observer location to see the next 7 days of passes ≥ 10°. The values pass through the URL so the page stays shareable.

No JS? Fill the form by hand. The geolocation button needs JavaScript.